Vorticity
nan nan nan nan nan nan nan nan nan nan nan nan nan nan nan nan nan nan nan nan nan nan nan nan nan nan nan nan nan nan nan nan nan nan nan nan nan nan nan nan nan nan nan
nan 4 2 4 5 5 5 5 5 5 6 5 5 5 5 6 5 5 5 5 5 5 4 4 5 5 5 5 4 4 5 4 4 6 8 7 4 6 6 4 7 4 nan
nan 5 4 4 6 4 5 4 5 6 5 4 5 5 5 6 5 5 5 5 5 4 5 5 5 5 5 5 4 4 4 4 6 6 14 8 5 4 5 5 6 7 nan
nan 4 6 4 6 5 5 5 5 4 4 5 5 5 6 5 5 5 5 5 5 6 6 6 5 4 5 5 5 5 5 6 5 6 15 11 3 1 6 8 10 8 nan
nan 6 6 5 5 5 5 5 5 5 5 5 5 5 6 5 5 4 5 6 7 7 6 6 4 3 4 4 5 5 6 6 7 16 6 10 4 4 6 10 10 5 nan
nan 6 8 6 4 6 6 5 5 5 5 6 6 6 5 6 5 5 6 6 6 6 6 5 4 4 4 5 5 4 4 6 10 19 8 9 4 4 9 7 5 5 nan
nan 6 4 5 5 6 7 6 5 5 6 6 6 6 6 6 5 6 6 4 4 5 4 4 4 4 5 5 4 4 5 8 13 7 4 7 4 7 7 6 4 5 nan
nan 9 5 5 3 6 6 6 7 5 5 6 5 6 5 5 6 5 5 4 4 3 3 3 3 3 3 3 5 5 4 5 7 6 6 5 3 7 8 6 5 4 nan
nan 7 6 6 4 4 6 5 6 6 5 5 6 5 5 4 5 4 3 4 4 4 4 4 5 5 4 3 4 4 5 6 7 4 13 4 4 5 6 7 6 4 nan
nan 7 7 6 7 4 4 3 5 5 5 5 5 5 4 4 5 4 4 1 3 4 5 5 5 6 5 5 4 3 7 10 6 10 14 5 5 6 5 6 6 5 nan
nan 8 8 8 6 6 6 4 5 4 4 5 5 5 6 6 9 1 0 3 4 5 4 4 6 6 8 14 9 5 5 8 8 9 6 5 6 9 9 7 8 8 nan
nan 5 5 7 8 7 6 4 3 6 5 5 7 7 9 5 8 9 6 5 5 6 7 7 7 10 7 10 14 7 5 6 9 8 7 4 6 9 11 12 11 10 nan
nan 7 7 7 7 8 6 7 5 8 8 6 6 5 9 6 5 9 10 8 9 7 7 9 6 6 9 7 7 8 6 7 10 9 8 4 6 8 9 10 11 12 nan
nan 5 7 7 7 9 8 7 8 8 8 6 7 9 3 8 5 5 5 12 8 4 7 7 7 6 5 6 6 6 7 7 7 10 4 4 5 7 8 8 8 8 nan
nan 7 7 7 7 6 9 9 8 5 6 7 5 8 9 8 7 5 7 6 6 7 7 8 6 6 7 8 7 8 6 7 8 8 5 6 4 6 6 6 7 7 nan
nan 8 8 9 9 6 5 8 6 7 6 6 11 10 6 2 6 8 8 4 8 9 7 8 10 7 7 9 7 6 7 8 7 6 9 7 8 5 4 4 4 5 nan
nan 7 7 4 7 9 6 2 4 6 7 8 10 10 11 11 9 8 6 9 8 8 10 8 6 8 8 5 5 7 7 8 8 6 7 10 8 -2 3 5 3 3 nan
nan 7 5 5 4 -1 2 8 9 8 8 9 8 8 11 12 9 9 8 7 7 7 7 8 8 6 5 7 8 7 8 7 7 10 9 7 4 6 8 2 3 2 nan
nan 7 6 4 3 1 5 6 9 9 7 9 8 7 5 7 8 8 10 7 6 7 6 6 5 7 7 7 7 8 6 10 9 7 9 10 10 9 3 5 1 5 nan
nan 6 5 5 4 2 5 8 8 6 7 6 8 7 8 7 6 10 8 5 7 7 6 6 7 8 8 7 7 9 9 6 11 10 10 12 8 6 6 5 5 6 nan
nan 7 4 6 4 7 7 8 7 6 7 8 6 7 8 6 8 7 6 6 8 6 7 7 7 7 8 9 11 7 10 9 6 10 9 8 7 8 8 9 8 7 nan
nan 7 7 6 8 10 7 4 9 10 7 8 7 6 6 5 6 6 7 7 7 7 7 9 9 11 8 8 8 10 8 11 5 6 8 8 8 8 7 6 7 8 nan
nan 8 9 9 7 6 9 9 8 11 9 5 4 5 3 4 5 7 6 8 8 8 7 9 10 11 9 8 8 8 8 7 9 5 7 8 10 8 9 7 7 8 nan
nan 9 10 7 7 8 6 5 6 9 10 10 7 6 5 6 7 8 9 10 9 9 8 9 9 9 10 8 9 7 9 9 9 10 10 8 8 8 9 9 9 7 nan
nan 8 8 6 7 9 11 9 8 9 8 6 6 5 9 7 9 9 10 10 11 9 9 10 10 8 12 8 8 9 10 11 9 9 8 9 8 8 9 9 8 10 nan
nan nan nan nan nan nan nan nan nan nan nan nan nan nan nan nan nan nan nan nan nan nan nan nan nan nan nan nan nan nan nan nan nan nan nan nan nan nan nan nan nan nan nan
CAPE
634 328 838 990 985 896 756 678 661 692 836 801 687 524 473 414 289 377 447 406 327 87 23 1 0 0 0 0 0 0 0 0 0 38 97 286 506 842 537 727 1205 115 768
720 366 703 979 1060 809 669 832 883 1006 977 642 573 509 428 287 261 258 348 375 209 1 0 0 0 0 0 0 0 0 0 0 0 0 73 324 761 854 704 807 1281 378 519
839 528 352 858 1039 962 901 1039 1083 1184 776 657 524 421 303 217 261 237 270 314 23 0 0 0 0 0 0 0 0 0 0 0 0 5 31 213 636 779 464 484 862 576 338
888 475 289 856 1001 1090 1042 973 1026 1018 880 630 472 342 240 202 170 146 121 168 2 0 0 0 0 0 0 0 0 0 0 0 31 187 1 0 540 527 445 485 412 502 435
937 601 484 850 713 858 767 805 803 971 1111 801 605 324 183 119 62 60 0 0 0 0 0 0 0 0 0 30 16 0 0 14 53 17 0 0 94 775 781 564 773 496 851
952 765 466 597 655 862 723 787 889 1239 1057 930 691 300 151 21 0 0 0 0 14 11 0 0 12 27 57 129 100 73 39 87 0 0 0 2 14 678 776 354 444 408 697
578 422 481 379 410 752 809 845 1009 1219 983 837 534 336 109 0 0 0 0 21 27 28 11 15 32 70 107 122 101 82 130 164 0 0 0 0 3 265 839 378 121 105 139
421 467 495 463 636 650 695 936 916 984 868 750 506 288 69 26 42 26 42 67 49 41 73 76 105 171 205 244 196 175 139 181 0 0 0 0 99 84 168 568 338 245 81
46 599 664 771 710 580 669 674 715 788 790 683 472 284 126 120 114 125 186 223 247 181 190 270 308 359 388 351 243 145 93 170 17 0 1 0 33 50 34 81 335 295 76
322 955 1070 1005 1043 1099 952 657 702 699 680 586 405 247 179 216 175 153 118 349 420 420 455 591 577 459 395 407 218 82 90 124 0 2 18 0 40 52 37 49 59 116 105
981 1151 1046 929 907 891 969 835 689 722 635 474 423 257 220 390 272 187 204 345 489 453 461 524 132 72 161 387 430 72 81 0 0 0 3 0 0 62 147 81 89 161 123
904 836 896 936 855 951 568 542 334 107 99 163 428 361 410 505 347 5 140 394 458 308 324 303 73 173 111 3 27 231 0 0 0 0 0 0 0 0 23 149 196 193 340
953 906 832 956 823 635 419 183 51 23 171 506 679 547 760 500 660 437 301 340 368 242 183 78 62 49 23 0 0 0 0 0 0 0 0 0 0 0 0 48 126 168 189
892 893 649 539 590 441 149 56 72 444 525 552 815 814 819 598 565 457 400 480 286 218 90 69 83 22 0 0 0 0 0 0 0 0 0 0 0 0 0 0 0 0 11
532 498 453 440 421 382 337 511 712 946 934 1065 1088 1085 846 503 301 181 212 137 308 68 57 63 57 0 0 0 0 0 0 0 0 0 0 0 0 0 0 0 0 0 0
488 532 386 232 383 619 883 805 470 452 518 470 786 1081 778 452 268 139 95 90 48 47 28 1 0 0 0 0 0 0 0 0 0 0 0 0 0 1 0 0 0 0 0
502 409 399 701 802 752 580 340 226 119 84 217 552 920 1064 679 445 265 8 46 60 0 0 0 0 0 0 0 0 0 0 0 0 0 8 24 13 5 4 1 0 0 0
593 466 606 752 667 462 319 0 56 93 76 40 1 21 0 0 0 0 0 0 0 0 0 0 0 0 0 0 0 0 0 0 0 13 10 26 37 34 11 0 0 0 0
842 668 612 755 549 465 138 174 38 1 0 0 0 0 0 0 0 0 0 0 0 0 0 0 0 0 0 0 0 3 5 0 9 0 0 24 45 38 33 15 43 36 0
936 843 817 681 440 546 550 93 0 0 0 0 0 0 0 0 0 0 0 0 0 0 0 1 0 0 1 12 4 5 5 0 0 1 9 23 23 17 19 24 26 21 77
1131 1086 973 736 636 706 348 108 11 0 0 0 0 0 0 0 0 0 0 0 0 0 1 9 18 24 8 1 0 3 0 0 8 0 4 17 5 4 12 19 14 9 5
1291 1244 1019 826 727 280 76 10 41 16 0 0 0 0 0 0 0 0 0 0 1 0 2 10 25 19 1 0 0 5 0 0 0 0 0 0 13 2 12 2 5 3 8
1217 1060 924 700 273 23 5 0 0 0 0 0 0 0 0 0 0 0 0 0 0 2 0 10 7 16 5 0 0 0 1 1 2 0 3 2 30 9 13 4 2 1 6
1191 984 525 144 3 0 0 0 0 2 2 0 0 0 0 0 0 0 0 0 0 0 1 3 6 12 11 7 9 5 10 13 9 5 1 4 15 14 69 21 6 1 0
882 530 46 0 0 0 0 0 0 0 0 0 0 0 0 0 0 0 0 0 0 0 2 11 29 27 21 31 24 12 2 2 2 12 16 13 16 23 20 58 17 15 10
111 2 0 0 0 0 0 0 0 0 0 0 0 0 0 0 0 0 0 0 0 0 10 30 34 30 33 19 11 12 14 18 16 25 33 26 55 18 12 34 73 56 53